Weather in Sainshand

Mongolia     44°53′40″N   110°08′10″E
temp.,
°C
wind,
m/s
gust,
m/s
humid.,
%
clouds,
%
prec.,
mm/h
press.,
hPa
HPBL,
m
22 may, sun
sun2223:00+23wnw221747 0.0 100411
02:00+20sw112417 0.1 100411
05:00+20sw44285 0.1 100427
08:00+24w452318 0.1 1004345
11:00+27sw33175 0.0 10031476
14:00+30w231263 0.0 10014063
17:00+27n971982 0.1 1001728
20:00+25ne342177 0.1 100268
23 may, mon
mon2323:00+21ene34315 0.2 100547
02:00+19ne4837100 0.2 1005152
05:00+18e33327 0.0 100541
08:00+22nne00300 0.0 1005206
11:00+26nw3320100 0.0 10041240
14:00+29wnw461590 0.0 10023008
17:00+30wnw67105 0.0 10013609
20:00+27wsw341236 0.0 100162
24 may, tue
tue2423:00+24n81414100 0.0 1003499
02:00+20ne8123498 0.0 1006632
05:00+17nne10132445 0.0 1010734
08:00+17nne13142388 0.0 10141333
11:00+18n91030100 0.0 10151657
14:00+21n81015100 0.0 10152967
17:00+21nne10111471 0.0 10153862
20:00+17ne1112250 0.0 10181082
25 may, wed
wed2523:00+14ne611350 0.0 1021662
02:00+12n48430 0.0 1021238
05:00+11n410430 0.0 1022231
08:00+16nne79280 0.0 1022931
11:00+20nne68190 0.0 10202725
14:00+23n671512 0.0 10173189
17:00+24n68140 0.0 10153240
20:00+21nnw46175 0.0 1014125
26 may, thu
thu2623:00+18nnw22210 0.0 101512
02:00+17nw33220 0.0 101519
05:00+15nw44230 0.0 101439
08:00+19nw46170 0.0 1013289
11:00+24nw55120 0.0 10112238
14:00+27w66887 0.0 10082711
17:00+27w677100 0.0 10052904
20:00+24w3385 0.0 100316